Regional Weather Roundup
Issued by NWS

Home | Current Version | Previous Version | Graphics & Text | Print | Product List | Glossary On
Versions: 1 2 3 4 5 6 7 8 9 10 11 12 13 14 15 16 17 18 19 20 21 22 23 24 25 26 27 28 29 30 31 32 33 34 35 36 37 38 39 40 41 42 43 44 45 46 47 48 49 50
000
ASUS43 KLSX 220510
RWRMO

WEATHER SUMMARY FOR MISSOURI
NATIONAL WEATHER SERVICE SPRINGFIELD MO
1200 AM CDT SUN APR 22 2018

NOTE: "FAIR" INDICATES FEW OR NO CLOUDS BELOW 12,000 FEET WITH NO
       SIGNIFICANT WEATHER AND/OR OBSTRUCTIONS TO VISIBILITY.
       CURRENT SKY AND/OR WEATHER CONDITIONS ARE NOT AVAILABLE FOR
       CHILLICOTHE AND FARMINGTON.

MOZ001>031-035>038-043-044-053-054-220600-
...NORTHERN AND WESTERN MISSOURI...

CITY           SKY/WX    TMP DP  RH WIND       PRES   REMARKS
KANSAS CTY INT CLOUDY    54  29  38 NE12      30.15F
KANSAS C DTWN  CLOUDY    58  28  32 NE8       30.13F
LEE`S SUMMIT   CLOUDY    56  30  37 E12       30.13F
ST JOSEPH      CLOUDY    55  31  39 NE9       30.18F
CHILLICOTHE      N/A     55  30  38 NE7       30.19F
KIRKSVILLE     CLOUDY    52  31  44 E10       30.22S

$$
MOZ066>068-077>081-088>096-101>105-220600-
...SOUTHWEST MISSOURI...

CITY           SKY/WX    TMP DP  RH WIND       PRES   REMARKS
SPRINGFIELD    LGT RAIN  55  48  77 NE6       30.04F
JOPLIN         CLOUDY    52  52 100 N6        30.05F
BRANSON        LGT RAIN  55  46  71 CALM      30.05S

$$
MOZ032>034-039>042-045>050-055>058-069>072-220600-
...CENTRAL MISSOURI...

CITY           SKY/WX    TMP DP  RH WIND       PRES   REMARKS
COLUMBIA       CLOUDY    59  32  36 E12       30.13F
JEFFERSON CITY CLOUDY    60  32  34 E8        30.13F
ROLLA          CLOUDY    58  34  40 E10       30.12F
SEDALIA        CLOUDY    58  35  42 E7        30.14F
WHITEMAN AFB   CLOUDY    55  33  42 E6        30.09F
WARRENSBURG    CLOUDY    55  32  41 NE8       30.12F
OSAGE BEACH    CLOUDY    60  37  42 E9        30.11F

$$
MOZ051-052-059>065-220600-
...EAST CENTRAL MISSOURI...

CITY           SKY/WX    TMP DP  RH WIND       PRES   REMARKS
ST LOUIS INTL  CLOUDY    58  33  39 E10       30.19F
SPIRIT OF STL  CLOUDY    57  35  43 E7        30.17F
ST CHARLES     CLOUDY    58  34  40 E13       30.19F

$$
MOZ072>076-082>087-097>100-106>115-220600-
...SOUTH CENTRAL AND SOUTHEAST MISSOURI...

CITY           SKY/WX    TMP DP  RH WIND       PRES   REMARKS
CAPE GIRARDEAU CLOUDY    64  36  35 E9        30.13S
FARMINGTON     CLOUDY    58  37  45 E8        30.14F
POPLAR BLUFF   CLOUDY    63  43  48 E7        30.09F
WEST PLAINS    CLOUDY    61  34  36 E6        30.09S

$$




USA.gov is the U.S. government's official web portal to all federal, state and local government web resources and services.